Theta_e
308 308 308 309 310 310 300 289 285 296 297 290 287 287 291 296 293 292 293 292 291 288 288 286 289 288 291 295 293 288 290 286 282 285 287 288 286 284 284 281 280 279 279 279
307 308 308 309 310 309 295 288 287 294 294 285 284 289 291 289 289 288 290 288 289 289 287 284 289 290 293 293 292 288 290 284 280 281 285 289 286 288 288 285 283 279 278 279
308 309 309 309 310 308 293 286 282 287 287 284 283 283 284 286 290 288 288 286 287 284 284 286 284 284 290 291 291 296 293 285 283 277 281 284 283 285 286 285 280 280 281 281
307 308 308 309 309 305 293 286 283 284 279 282 283 284 284 283 283 287 287 284 284 283 280 282 281 283 284 289 290 287 284 280 281 283 283 283 284 283 283 282 284 281 282 281
307 307 307 308 308 302 290 285 285 284 281 283 282 283 281 283 284 284 283 282 284 283 280 281 279 282 281 282 284 283 283 278 279 278 282 281 280 281 283 280 280 281 280 278
307 307 308 308 307 299 289 289 289 285 283 280 279 279 281 283 284 285 286 284 282 281 283 285 285 285 285 284 281 280 280 278 276 273 278 278 277 279 279 279 280 280 276 279
306 307 307 307 308 300 292 290 287 283 280 281 281 283 284 283 283 282 285 285 282 285 287 286 284 282 282 282 282 284 279 277 278 274 275 270 277 283 283 281 282 281 281 282
305 306 306 306 307 304 294 292 289 284 279 282 283 284 283 282 283 282 283 285 287 287 285 280 278 278 278 280 282 281 282 279 275 273 272 275 279 282 281 280 281 283 282 283
305 305 306 306 306 306 295 294 291 287 281 280 285 283 283 279 277 279 283 286 287 286 281 280 274 273 275 276 278 283 282 280 277 274 273 272 276 282 285 285 276 284 284 284
305 305 306 306 306 305 297 294 294 288 283 285 285 282 281 283 280 278 279 284 284 285 279 277 275 273 278 274 273 275 276 278 273 274 275 276 281 283 285 277 276 284 285 284
305 305 306 306 306 305 297 294 296 289 283 284 289 289 284 284 282 278 281 279 281 280 277 277 276 276 277 274 276 276 275 273 274 276 276 274 288 284 278 281 283 284 283 284
305 305 305 305 306 305 299 291 296 295 286 284 290 292 292 290 288 284 283 281 281 282 278 276 276 274 272 274 268 277 273 277 273 276 276 282 283 284 286 285 283 283 283 284
304 305 305 305 305 305 298 291 292 289 284 282 283 284 288 293 292 292 283 283 285 284 285 279 276 271 277 270 272 272 277 279 276 277 278 280 283 284 284 284 284 285 285 285
305 304 304 304 305 305 300 291 292 289 285 276 281 290 287 290 290 292 291 287 288 288 289 283 273 272 279 275 276 275 279 278 276 276 279 281 283 283 284 285 286 285 285 285
305 305 304 304 304 304 297 293 293 292 286 275 280 285 286 288 288 288 290 289 286 283 279 282 281 280 280 277 277 276 279 279 275 275 280 280 281 284 286 284 284 285 283 282
304 304 304 304 304 300 291 285 292 295 293 282 274 284 284 286 288 287 285 287 285 284 285 284 284 286 282 276 274 278 281 283 284 282 283 283 284 285 285 284 284 284 282 282
304 305 305 305 304 294 288 285 291 298 292 282 274 276 282 283 285 285 285 285 284 284 283 283 283 284 286 280 274 282 282 283 283 283 283 282 283 284 286 285 284 283 282 282
305 305 305 304 302 297 290 292 300 294 287 283 268 272 277 282 281 281 284 282 283 283 281 285 283 284 283 276 281 281 283 283 283 284 285 286 287 285 283 284 282 280 280 280
304 304 302 295 290 286 288 300 300 294 286 275 277 273 271 282 280 281 283 286 281 282 282 283 282 281 277 280 281 281 282 283 283 284 285 285 284 283 282 281 280 279 279 280
302 294 287 278 286 298 298 292 288 289 287 287 279 278 274 280 278 275 274 277 274 271 277 281 280 277 282 283 284 284 284 284 284 282 283 285 283 281 281 280 280 280 280 281
290 285 278 286 298 293 287 281 281 281 280 283 283 283 280 281 277 276 278 272 276 272 273 275 274 274 279 282 282 284 284 285 286 287 285 285 283 281 280 280 280 281 281 281
292 289 293 293 287 283 279 277 277 277 273 276 279 279 280 280 281 278 277 273 272 267 278 275 269 276 280 281 284 285 285 286 285 284 284 283 282 282 281 280 280 281 282 283
294 288 283 281 281 276 274 267 273 272 277 278 278 276 279 281 279 277 275 273 269 277 272 271 276 278 281 283 284 284 284 284 283 283 283 283 282 282 281 280 281 282 282 282
284 283 277 276 268 275 273 273 275 279 278 279 279 274 276 280 277 271 270 271 269 270 269 272 278 280 281 281 283 283 283 283 283 283 283 282 282 281 281 281 282 282 281 281
283 283 276 277 276 273 274 276 276 279 282 281 280 278 277 272 274 275 270 269 270 271 272 277 280 280 280 281 282 283 282 282 282 282 282 282 281 280 280 281 282 281 281 280
284 283 278 274 273 272 271 274 274 282 284 284 282 279 277 277 274 270 268 266 268 274 278 280 282 281 281 282 282 283 283 278 281 282 282 282 281 280 280 281 281 280 280 279
281 280 278 276 273 276 277 279 280 286 285 279 280 276 272 270 270 268 274 272 276 279 281 283 282 280 281 282 282 282 281 281 281 280 281 282 283 282 282 280 280 280 279 278
Wind_Speed
22 24 25 27 27 25 9 3 3 5 6 7 2 3 3 4 6 8 6 4 4 3 4 4 3 3 4 8 3 3 2 2 4 8 2 2 1 3 3 4 3 1 3 2
22 23 26 27 25 17 2 4 2 5 4 5 2 3 5 6 7 6 6 6 5 5 5 2 5 4 3 9 7 4 4 2 5 8 6 7 7 5 5 2 2 4 5 4
21 22 24 26 26 15 5 4 4 6 7 1 5 4 4 4 5 5 5 5 6 5 6 5 3 6 5 7 6 10 1 1 3 4 2 2 7 12 4 3 2 4 2 6
20 22 24 25 26 13 5 5 1 2 3 6 6 4 3 3 5 5 9 5 6 3 4 5 4 5 7 5 11 5 5 2 3 4 6 4 7 5 6 2 6 3 4 5
19 21 23 25 25 7 7 4 3 4 2 3 6 7 5 4 3 5 4 5 4 4 3 2 4 5 2 3 6 5 7 3 4 4 4 5 5 7 3 6 4 8 11 5
18 20 21 24 26 10 5 2 2 5 6 3 4 1 1 3 1 2 4 1 2 3 1 5 8 9 7 7 3 3 3 1 3 5 5 8 1 4 8 5 7 3 3 1
15 18 20 21 20 12 4 1 2 5 3 3 2 2 3 4 3 2 4 4 3 3 7 6 3 4 7 6 7 7 2 2 0 4 6 3 4 4 8 7 3 5 3 2
13 15 18 20 20 14 5 2 3 3 4 2 5 5 3 3 4 4 2 3 2 6 5 5 5 5 2 3 3 6 7 4 2 1 2 1 3 2 2 1 3 1 1 2
10 13 15 17 19 15 4 4 1 4 6 3 2 3 3 2 3 5 3 4 4 4 3 3 4 2 3 5 7 7 5 3 2 0 2 4 1 5 4 3 5 2 4 3
8 10 12 15 16 14 4 2 4 4 5 3 2 3 2 3 3 1 3 6 7 4 3 3 3 2 2 2 3 4 2 2 4 4 4 4 3 5 4 5 3 3 4 4
5 7 10 12 14 15 5 1 5 4 3 3 1 2 3 2 2 2 3 4 4 4 4 2 2 1 2 2 3 3 2 1 3 1 4 5 4 0 2 5 3 3 3 1
4 6 7 9 11 13 6 3 3 2 4 3 2 3 4 4 6 5 2 4 2 3 3 1 1 1 2 2 3 4 3 5 4 7 5 2 2 4 8 6 4 2 1 2
3 4 5 7 9 9 7 1 3 4 3 4 3 1 3 2 4 4 4 2 2 2 4 3 1 2 3 2 5 1 5 2 3 2 3 6 9 6 5 3 1 4 3 1
2 0 2 4 6 5 5 2 1 4 2 3 6 3 3 1 2 4 4 5 3 4 2 2 3 2 3 3 4 4 7 1 3 6 10 10 8 5 3 3 4 3 3 3
5 3 2 1 3 6 4 2 2 1 4 3 5 4 2 4 3 4 4 6 4 2 1 2 3 2 2 2 1 8 6 8 4 8 7 5 6 4 4 5 4 4 3 1
3 3 4 1 3 5 3 4 3 0 2 3 4 3 4 4 3 1 3 3 3 3 4 3 3 1 3 3 5 7 6 6 11 11 5 7 7 5 4 5 3 3 4 3
5 5 4 3 7 3 3 4 3 2 3 3 5 6 4 4 3 3 3 2 2 4 3 3 3 3 4 3 8 19 8 8 7 7 4 6 4 4 3 3 3 2 4 3
9 8 4 5 9 5 3 2 3 4 4 3 1 5 5 2 2 2 1 1 1 1 2 1 2 2 3 7 14 7 8 6 8 8 6 3 4 5 3 2 2 1 1 1
4 12 12 5 4 2 3 4 5 2 4 2 1 2 4 3 1 1 2 2 1 1 2 3 2 3 8 14 12 7 9 6 5 5 6 5 4 5 4 4 4 3 3 2
15 5 4 3 3 4 1 4 2 0 2 2 4 2 3 2 1 2 2 1 2 1 5 1 4 6 13 13 13 12 9 9 6 5 4 6 4 6 6 7 5 5 4 3
3 2 2 4 2 2 2 0 1 1 3 3 3 6 3 2 2 3 2 2 2 2 5 2 3 6 6 7 8 7 6 7 6 4 3 5 4 5 6 6 6 5 4 4
5 5 3 2 2 2 2 3 2 3 6 3 4 5 5 2 2 2 1 2 2 6 1 2 4 7 6 7 5 3 2 6 7 5 5 5 6 6 6 6 6 6 4 4
3 3 3 3 2 4 6 7 4 3 4 4 3 2 3 0 1 2 2 2 5 2 1 5 7 5 5 6 4 4 4 5 3 4 4 5 6 6 6 6 5 5 4 4
3 4 6 7 4 6 8 6 5 5 3 4 4 2 3 2 3 2 3 5 3 3 4 7 5 8 8 6 5 4 7 8 8 9 7 8 7 7 7 6 5 5 5 5
4 4 6 7 5 2 3 3 1 3 3 4 2 2 3 1 2 4 1 1 6 7 6 5 5 4 5 5 5 8 7 8 8 7 7 7 7 6 7 6 5 6 5 5
4 5 3 2 2 3 2 3 3 4 3 1 1 3 3 5 5 5 9 5 8 5 5 6 3 5 5 7 7 8 7 5 7 6 7 6 7 7 7 5 5 5 5 6
5 4 3 4 1 5 5 6 6 6 7 4 4 6 10 1 4 6 6 7 4 5 5 5 7 7 7 6 7 7 6 7 8 6 7 7 5 5 5 6 4 5 5 5
Wind_Direction
1 356 358 355 354 349 33 66 53 314 348 53 32 65 52 28 360 10 34 89 48 28 357 346 42 75 12 347 317 3 360 139 270 250 274 295 282 8 110 128 256 31 132 219
1 358 356 353 355 8 45 64 294 327 39 96 53 60 71 59 25 17 15 33 28 20 21 30 33 34 22 9 28 33 325 2 340 339 2 9 37 19 15 317 60 209 145 206
4 360 358 354 354 7 83 67 33 339 39 49 87 80 24 90 42 57 64 18 44 18 28 13 33 351 2 344 9 11 22 57 174 213 277 293 310 318 9 44 326 305 241 134
9 8 1 357 356 11 85 37 71 211 6 11 64 72 40 45 17 17 24 42 52 13 347 348 22 6 331 4 355 30 64 299 6 286 273 269 264 321 349 266 235 240 141 101
10 11 7 2 1 31 78 97 105 33 41 6 49 24 13 51 22 33 11 70 343 25 83 137 296 20 297 268 351 29 355 297 8 286 298 307 247 358 36 41 355 87 106 82
14 13 13 13 9 36 78 353 38 99 336 34 75 2 64 44 72 47 80 88 25 9 257 251 237 215 233 248 309 360 308 333 28 270 327 310 285 11 81 77 34 69 70 190
19 17 20 22 21 44 100 56 94 81 19 62 66 81 86 66 26 112 14 42 41 282 319 286 288 222 233 223 243 187 227 112 138 278 343 243 145 104 103 91 20 59 78 44
23 22 22 23 24 37 70 16 76 97 111 131 46 54 73 39 7 56 50 348 264 305 10 9 2 351 20 20 214 213 186 143 256 241 246 339 256 16 3 313 201 89 81 103
27 25 25 26 24 28 65 41 36 83 116 306 111 83 10 88 10 6 353 321 311 34 72 48 39 28 317 331 351 43 105 96 141 65 249 259 69 293 260 167 236 249 171 198
28 27 26 27 26 30 66 18 8 79 96 279 104 132 162 120 86 112 317 335 356 18 31 52 39 316 291 334 338 324 348 60 191 250 255 278 255 292 307 176 144 245 194 237
29 33 27 24 23 28 62 307 4 90 102 282 347 140 133 76 87 117 274 42 350 29 54 47 318 357 309 324 280 281 241 326 234 224 233 244 234 281 6 254 303 240 252 242
66 47 33 27 24 22 55 42 346 15 91 212 308 281 251 198 178 135 25 170 185 190 94 37 109 303 351 146 265 327 274 197 211 183 234 187 236 188 255 268 234 271 22 54
72 59 34 34 33 43 65 58 331 46 46 340 24 284 356 95 196 168 126 290 205 127 164 154 157 254 137 213 240 251 282 211 222 358 285 286 293 289 263 312 237 90 86 130
188 64 12 30 41 60 65 50 3 79 93 93 281 330 293 197 167 189 174 152 75 109 93 119 159 191 174 240 253 211 218 223 222 259 268 280 266 224 248 117 88 63 336 312
216 219 269 14 45 83 75 39 348 163 117 206 275 294 294 303 333 222 160 149 130 121 100 157 221 216 242 253 310 256 176 230 186 245 235 223 256 256 146 150 179 204 205 153
166 189 212 250 108 99 60 22 326 271 93 62 340 295 319 316 330 181 173 155 128 158 174 201 222 168 151 247 244 241 220 229 228 251 229 220 246 193 151 155 169 156 143 147
225 218 224 246 141 87 116 181 235 123 62 63 330 336 307 306 7 24 47 62 164 154 204 208 200 182 210 238 250 266 227 240 259 244 244 288 195 235 184 152 174 141 144 142
240 223 193 122 104 70 13 301 132 92 86 67 75 276 334 337 8 357 359 82 3 293 200 285 202 178 207 251 247 269 265 273 279 269 203 199 141 153 176 193 186 197 311 7
167 124 108 66 47 85 257 286 106 106 125 168 199 209 261 354 9 300 356 345 274 353 236 226 150 198 227 237 261 250 233 214 241 132 134 149 195 200 206 216 215 213 251 269
116 62 66 340 235 237 259 24 54 311 216 210 222 170 260 102 57 316 62 341 235 330 244 150 227 249 253 260 253 261 259 215 212 158 193 208 216 207 214 218 213 209 217 236
65 100 146 230 289 75 38 124 218 250 258 229 234 212 209 236 154 220 180 211 227 273 262 175 264 267 248 270 283 278 259 215 201 208 168 162 182 191 213 224 220 213 220 227
173 144 122 85 60 74 152 218 261 211 236 235 186 202 191 246 128 119 270 195 57 249 201 239 261 250 255 284 278 306 168 144 163 186 185 195 208 213 216 220 219 209 212 200
52 62 121 123 192 187 203 203 228 229 210 197 175 188 169 2 73 99 110 214 230 31 224 234 233 261 258 260 244 217 202 180 173 198 214 218 230 225 206 219 220 194 200 195
176 164 178 191 210 220 203 192 185 219 176 157 141 111 167 184 129 167 166 239 82 263 233 235 246 244 260 254 223 191 216 212 215 221 222 225 224 231 222 214 204 188 203 204
204 201 215 202 211 256 257 213 244 228 161 133 110 64 129 232 148 195 96 267 229 207 229 236 246 257 279 278 226 217 224 220 226 224 225 230 227 229 231 213 201 193 194 196
223 214 192 219 104 272 220 200 239 188 155 81 73 154 218 199 187 164 210 177 220 228 221 238 244 251 239 250 232 227 233 211 230 220 221 226 222 219 220 212 200 191 202 208
212 220 182 160 239 205 205 185 211 164 150 192 193 207 214 90 202 215 201 209 202 223 241 231 235 250 257 246 251 256 240 235 232 225 218 226 225 216 199 199 197 205 211 208